Location: Newark
(44.6768°N, 22.5302°E)
Time: 01:31:30
(UTC+00:00)

ZACube-1 - Pass Details

Date: 06 July 2022
Orbit: 582 x 661 km, 97.6° (Epoch: 08 August)

Event Time Altitude Azimuth Distance (km) Brightness Sun altitude
Rises 02:03:32 0° 17° (NNE) 2,971 ? -7.5°
Reaches altitude 10° 02:05:48 10° 23° (NNE) 2,065 ? -7.2°
Maximum altitude 02:10:12 50° 99° (E) 838 ? -6.6°
Drops below altitude 10° 02:14:36 10° 175° (S) 2,071 ? -6.0°
Sets 02:16:53 0° 181° (S) 2,980 ? -5.7°
